Location: Most
(50.5133°N, 13.6207°E)
Time: 16:38:47
(UTC+01:00)

ISS - Visible Passes

Search period start: 29 November 2022 00:00
Search period end: 09 December 2022 00:00
Orbit: 411 x 420 km, 51.6° (Epoch: 29 November)

Date Brightness Start Highest point End Pass type
(mag) Time Alt. Az. Time Alt. Az. Time Alt. Az.
29 Nov -3.9 17:51:37 10° W 17:54:57 75° N 17:55:46 47° E visible
29 Nov -0.3 19:28:25 10° W 19:28:40 12° W 19:28:40 12° W visible
30 Nov -3.8 17:02:53 10° W 17:06:13 70° N 17:09:05 13° E visible
30 Nov -2.4 18:39:39 10° WNW 18:41:58 39° W 18:41:58 39° W visible
01 Dec -3.8 17:50:54 10° WNW 17:54:15 80° SSW 17:55:20 39° ESE visible
01 Dec -0.3 19:27:57 10° W 19:28:13 11° W 19:28:13 11° W visible
02 Dec -3.8 17:02:07 10° WNW 17:05:28 84° NNE 17:08:45 10° E visible
02 Dec -2.1 18:38:58 10° W 18:41:39 32° SW 18:41:39 32° SW visible
03 Dec -2.9 17:50:05 10° W 17:53:18 47° SSW 17:55:11 21° SE visible
04 Dec -3.4 17:01:13 10° WNW 17:04:32 65° SSW 17:07:49 10° ESE visible
04 Dec -1.2 18:38:34 10° W 18:40:47 17° SW 18:41:49 15° SSW visible
05 Dec -1.5 17:49:20 10° W 17:52:06 24° SW 17:54:52 10° SSE visible
06 Dec -2.1 17:00:16 10° W 17:03:22 35° SSW 17:06:25 10° SE visible
07 Dec -0.5 17:49:17 10° WSW 17:50:38 12° SW 17:51:59 10° SSW visible
08 Dec -0.7 16:59:33 10° W 17:01:55 18° SW 17:04:16 10° S visible
